Miscellaneous Local Product
Issued by NWS North Platte, NE

Home | Current Version | Previous Version | Text Only | Print | Product List | Glossary On
Versions: 1 2 3 4 5 6 7 8 9 10 11 12 13 14 15 16 17 18 19 20 21 22 23 24 25 26 27 28 29 30 31 32 33 34 35 36 37 38 39 40 41 42 43 44 45 46 47 48 49 50
000
AXUS43 KLBF 281510
MISLBF


WESTERN AND NORTH CENTRAL NEBRASKA HOURLY WEATHER ROUNDUP
NATIONAL WEATHER SERVICE NORTH PLATTE NE
1000 AM CDT WED SEP 28 2016

NOTE: "FAIR" INDICATES FEW OR NO CLOUDS BELOW 12,000 FEET WITH NO
SIGNIFICANT WEATHER AND/OR OBSTRUCTIONS TO VISIBILITY.

NOTE: STATIONS NOT REPORTING VARIABLES SUCH AS SKY/WEATHER OR
PRESSURE ARE PROVIDED BY RAWS AND APRS NETWORKS AND ARE NOT UNDER
NATIONAL WEATHER SERVICE QUALITY CONTROL.

...OBSERVATIONS IN AND NEAR THE EASTERN PANHANDLE OF NEBRASKA...

CITY           SKY/WX    TMP DP  RH WIND       PRES   REMARKS
PINE RIDGE     SUNNY     56  44  64 CALM      30.26R
CHADRON        SUNNY     58  45  62 W5        30.27R
ALLIANCE       SUNNY     58  47  66 CALM      30.28R
SIDNEY         SUNNY     63  43  48 N9        30.30R
$$

...OBSERVATIONS IN NORTHERN NEBRASKA AND FAR SOUTHERN SOUTH DAKOTA...

CITY           SKY/WX    TMP DP  RH WIND       PRES   REMARKS
WINNER         FAIR      55  42  61 E6        30.24R
VALENTINE      SUNNY     55  38  52 CALM      30.24R
THEDFORD       SUNNY     59  45  59 NE5       30.25R
AINSWORTH      SUNNY     55  44  67 CALM      30.23R
O`NEILL        SUNNY     53  42  65 N7        30.23R
ORD            SUNNY     58  39  49 N8        30.20R
BROKEN BOW     SUNNY     60  38  43 N8        30.21R
$$

...OBSERVATIONS IN SOUTHWEST NEBRASKA AND FAR NORTHEAST COLORADO...

CITY           SKY/WX    TMP DP  RH WIND       PRES   REMARKS
WRAY           FAIR      64  37  36 W5        30.26R
HOLYOKE        FAIR      68  41  37 NW7       30.27R
IMPERIAL       SUNNY     61  42  49 N7        30.25R
OGALLALA       SUNNY     65  43  43 N7        30.25R
NORTH PLATTE   SUNNY     59  47  64 CALM      30.23R
MCCOOK         SUNNY     60  46  59 CALM      30.22R
LEXINGTON      SUNNY     59  46  60 N3        30.21R
GOTHENBURG       N/A     51  42  71 W3          N/A
CALLAWAY         N/A     53  45  74 NE6         N/A
$$

...OBSERVATIONS IN CENTRAL LINCOLN COUNTY AREA...

CITY           SKY/WX    TMP DP  RH WIND       PRES   REMARKS
N.P. AIRPORT   SUNNY     59  47  64 CALM      30.23R
$$

...SOME OBSERVATIONS FROM AROUND THE REGION...

CITY           SKY/WX    TMP DP  RH WIND       PRES   REMARKS
DENVER         SUNNY     63  30  28 W9        30.34R
LARAMIE        SUNNY     49  35  58 CALM      30.43R
CHEYENNE       SUNNY     60  36  40 CALM      30.38R
SCOTTSBLUFF    SUNNY     56  43  61 NW8       30.30R
RAPID CITY     SUNNY     65  46  50 SE3       30.24R
BISMARCK       SUNNY     48  42  80 E5        30.27R
PIERRE         SUNNY     51  41  68 E7        30.24R
SIOUX FALLS    MOSUNNY   51  44  77 N15       30.21R
OMAHA          MOSUNNY   53  44  71 N13       30.16R
GRAND ISLAND   SUNNY     57  42  57 N10       30.19R
KANSAS CITY    MOSUNNY   58  46  64 N10       30.06R
WICHITA        SUNNY     68  53  58 N14       30.07R
OKLAHOMA CITY  MOSUNNY   72  52  49 NW8       30.04R
DALLAS         PTSUNNY   71  51  49 SW5       30.06R
AMARILLO       SUNNY     70  39  32 NW7       30.21R
DODGE CITY     SUNNY     74  44  34 NE12      30.15R
HAYS           SUNNY     64  43  45 NE13      30.17R
GOODLAND       SUNNY     64  42  44 W7        30.24R
$$




USA.gov is the U.S. government's official web portal to all federal, state and local government web resources and services.